SCP
0 0 0 0 0 0 0 -0 -0 -0 0 0 0 0 -0 -0 -0 0 0 0 -0 -0 -0 0 0 0 0 0 0 -0 -0 0 -0 -0 0 0 -0 -0 0 0 0 0 0 0 0 0 0 0 0 0 0 0 0 0
0 0 0 0 0 0 0 -0 -0 -0 0 0 0 0 0 -0 -0 -0 0 0 -0 -0 -0 0 0 -0 -0 0 0 0 0 0 0 0 0 0 0 -0 0 -0 -0 0 0 0 0 0 0 0 0 0 0 0 0 0
0 0 0 0 0 0 -0 -0 -0 -0 0 0 0 0 0 -0 -0 -0 0 0 0 0 0 0 0 0 0 -0 -0 0 0 0 0 0 0 0 0 0 0 0 0 -0 0 0 0 0 0 0 0 0 0 0 0 0
0 0 0 0 0 0 -0 -0 -0 -0 0 0 0 0 0 -0 -0 -0 0 0 0 -0 0 0 0 0 0 0 0 0 0 0 0 0 0 0 0 0 0 0 0 0 0 0 -0 -0 0 0 0 0 0 0 0 0
0 0 0 0 0 0 -0 -0 -0 -0 0 0 0 0 0 -0 -0 -0 0 0 0 -0 0 0 0 0 0 0 0 0 0 0 0 0 0 0 0 0 0 0 0 0 0 0 0 0 0 0 0 0 0 0 0 0
0 -0 0 0 0 0 -0 -0 -0 0 0 0 0 -0 -0 0 0 -0 0 0 0 -0 0 0 0 0 0 0 0 0 0 0 0 0 0 0 0 0 0 0 0 0 0 0 0 0 0 0 0 0 0 0 0 0
0 0 0 0 0 0 -0 -0 -0 0 0 0 -0 -0 -0 0 0 0 0 0 -0 -0 0 0 0 0 0 0 0 0 0 0 0 0 0 0 0 0 0 0 0 0 0 0 0 0 0 0 0 0 0 0 0 0
0 0 0 0 0 0 -0 -0 -0 0 0 0 -0 -0 -0 0 -0 -0 -0 -0 -0 0 0 0 0 0 0 0 0 0 0 0 0 0 0 0 0 0 0 -0 0 0 0 0 0 0 0 0 0 0 0 0 0 0
0 0 0 0 0 0 -0 -0 -0 0 0 -0 -0 -0 -0 -0 0 -0 -0 0 -0 -0 0 0 0 0 0 0 0 0 0 0 0 0 0 0 0 -0 -0 0 0 0 0 0 0 0 0 0 0 0 0 0 0 0
0 0 0 0 0 -0 -0 -0 -0 0 0 -0 -0 -0 0 -0 -0 -0 -0 0 0 0 0 0 0 0 0 0 0 0 0 0 0 0 0 0 0 0 -0 0 0 0 0 0 0 0 0 0 0 0 0 0 0 0
0 0 0 0 0 -0 -0 -0 0 -0 -0 -0 -0 -0 -0 -0 0 0 0 0 0 0 0 0 0 0 0 0 0 0 0 0 0 0 0 0 0 0 0 -0 0 -0 0 0 0 0 0 0 0 0 0 0 0 0
0 0 0 0 0 -0 -0 -0 -0 0 0 0 0 0 0 0 -0 0 0 0 0 0 0 0 0 0 0 0 0 0 0 0 0 0 0 0 0 0 0 0 0 0 0 -0 -0 0 0 0 0 0 0 0 0 0
0 0 0 -0 -0 -0 0 0 -0 0 -0 -0 0 -0 -0 -0 0 0 0 0 0 0 0 0 0 0 0 0 0 0 0 0 0 0 0 0 0 0 0 0 0 0 0 -0 0 0 0 0 0 0 0 0 0 0
-0 -0 -0 -0 -0 0 -0 -0 -0 -0 -0 0 0 0 -0 -0 0 0 0 0 0 0 0 0 0 0 0 0 0 0 0 0 0 0 0 0 0 0 0 0 0 0 0 0 0 0 0 0 0 0 0 0 0 0
-0 -0 -0 -0 0 0 -0 -0 0 0 -0 0 0 0 -0 -0 0 0 0 0 0 0 0 0 0 0 0 0 0 0 0 0 0 0 0 0 0 0 0 0 0 0 0 0 0 0 0 0 0 0 0 0 0 0
-0 -0 -0 0 -0 0 0 -0 -0 -0 -0 -0 0 -0 -0 -0 0 0 0 0 0 0 0 0 0 0 0 0 0 0 0 0 0 0 0 0 0 0 0 0 0 0 0 0 0 0 0 0 0 0 0 0 0 0
-0 0 0 0 0 0 -0 0 0 -0 0 -0 0 0 -0 -0 0 0 0 0 0 0 0 0 0 0 0 0 0 0 0 0 0 0 0 0 0 0 0 0 0 0 0 0 0 0 0 0 0 0 0 0 0 0
0 0 0 0 -0 0 0 0 0 0 0 -0 0 0 0 0 -0 0 0 0 0 0 0 0 0 0 0 0 0 0 0 0 0 0 0 0 0 0 0 0 0 0 0 0 0 0 0 0 0 0 0 0 0 0
-0 0 -0 0 0 0 0 0 0 0 0 0 0 0 0 0 0 -0 0 0 0 0 0 0 0 0 0 0 0 0 0 0 0 0 0 0 0 0 0 0 0 0 0 0 0 0 0 0 0 0 0 0 0 0
0 0 -0 -0 0 0 0 0 0 0 0 0 0 -0 0 0 0 0 0 0 0 0 0 0 0 0 0 0 0 0 0 0 0 0 0 0 0 0 0 0 0 0 0 0 0 0 0 0 0 0 -0 0 0 0
0 0 0 0 0 0 0 0 -0 0 0 0 0 0 -0 0 0 0 0 0 0 0 0 0 0 0 0 0 0 0 0 0 0 0 0 0 0 0 0 0 0 0 0 0 0 0 0 0 0 0 -0 0 -0 0
0 0 0 0 0 0 0 -0 0 0 0 0 -0 -0 0 0 0 0 0 0 0 0 0 0 0 0 0 0 0 0 0 0 0 0 0 0 0 0 0 0 0 0 0 0 0 0 0 0 0 -0 -0 0 -0 0
0 0 0 0 0 0 0 0 0 0 -0 0 0 0 0 0 0 0 0 0 0 0 0 0 0 0 0 0 0 0 0 0 0 0 0 0 0 0 0 0 0 0 0 0 0 0 0 0 0 0 0 -0 0 0
0 0 0 0 0 0 0 0 0 0 -0 0 0 0 0 0 0 0 0 0 0 0 0 0 0 0 0 0 0 0 0 0 0 0 0 0 0 0 0 0 0 0 0 0 0 0 0 0 0 0 0 0 0 0
0 0 0 0 0 0 0 0 0 0 0 0 0 0 0 0 0 0 0 0 0 0 0 0 0 0 0 0 0 0 0 0 0 0 0 0 0 0 0 0 0 0 0 0 0 0 0 0 0 0 0 0 0 0
0 0 0 0 0 0 0 0 0 0 0 0 0 0 0 0 0 0 0 0 0 0 0 0 0 0 0 0 0 0 0 0 0 0 0 0 0 0 0 0 0 0 0 0 0 0 0 0 0 0 0 0 0 0
0 0 0 0 0 0 0 0 0 0 0 0 0 0 0 0 0 0 0 0 0 0 0 0 0 0 0 0 0 0 0 0 0 0 0 0 0 0 0 0 0 0 0 0 0 0 0 0 0 0 0 0 0 0
0 0 0 0 0 0 0 0 0 0 0 0 0 0 0 0 0 0 0 0 0 0 0 0 0 0 0 0 0 0 0 0 0 0 0 0 0 0 0 0 0 0 0 0 0 0 0 0 0 0 0 0 0 0
0 0 0 0 0 0 -0 0 0 0 0 0 0 0 0 0 0 0 0 0 0 0 0 0 0 0 0 0 0 0 0 0 0 0 0 0 0 0 0 0 0 0 0 0 0 -0 0 0 0 0 0 0 0 0
0 0 0 0 0 0 0 0 0 -0 -0 0 0 0 0 0 0 0 0 0 0 0 0 0 0 0 0 0 0 0 0 0 0 0 0 0 0 0 0 0 0 0 0 0 0 0 0 0 0 0 0 0 0 0
0 0 0 0 0 -0 -0 0 0 -0 0 0 0 0 0 0 0 0 0 0 0 0 0 0 0 0 0 0 0 0 0 0 0 0 0 0 0 0 0 0 0 0 0 0 0 0 0 0 0 0 0 0 0 0
0 0 0 0 0 0 0 -0 0 0 0 0 0 0 0 0 0 0 0 0 0 0 0 0 0 0 0 0 -0 0 0 0 0 0 0 0 0 0 0 0 0 0 0 0 0 0 0 0 0 0 0 0 0 0
0 0 0 0 0 0 0 0 0 0 0 0 0 0 0 0 0 0 0 0 0 0 0 0 0 0 -0 0 -0 -0 -0 0 0 0 0 0 0 0 0 0 0 0 0 0 0 0 0 0 0 0 0 0 0 0
Wind_Speed_500mb
38 35 32 32 25 6 3 7 10 10 13 12 11 8 9 11 11 12 9 9 6 4 6 10 4 4 5 5 1 12 10 7 8 4 4 3 2 3 5 4 7 13 12 10 11 12 16 19 14 13 15 19 15 9
37 32 28 20 5 3 3 9 9 9 11 11 10 9 7 9 10 10 5 11 5 1 1 11 10 7 3 3 4 8 6 3 6 5 3 5 5 7 9 6 7 9 6 4 9 4 10 24 5 14 9 7 6 4
33 30 20 16 10 4 6 9 10 10 9 9 8 8 9 9 10 10 8 10 5 3 5 7 11 12 11 5 6 5 4 5 6 2 9 5 4 7 8 7 7 10 10 9 4 16 14 19 13 12 9 7 10 9
29 27 19 14 14 12 7 7 9 9 8 6 5 7 9 10 11 11 6 8 5 3 7 9 4 3 13 16 13 8 7 9 12 8 5 5 3 8 4 2 11 2 15 14 16 16 8 24 23 20 15 14 13 10
25 23 20 13 15 16 10 5 8 9 8 10 7 7 9 11 12 11 8 7 12 5 8 5 3 3 4 10 15 13 14 10 9 7 8 3 6 8 5 6 12 19 16 13 9 6 21 3 30 27 25 22 16 11
23 20 15 10 15 17 11 4 8 8 8 9 7 8 10 10 9 6 3 6 9 10 2 4 2 4 5 16 17 17 16 9 6 3 5 4 2 7 6 6 7 10 20 25 14 11 14 9 20 30 25 19 15 12
22 18 14 11 19 15 11 5 5 5 5 5 4 8 8 7 4 3 2 5 3 10 1 6 10 3 8 14 13 13 12 7 7 2 5 9 5 5 1 6 10 16 19 22 16 10 14 19 16 22 20 18 17 12
23 20 14 13 24 21 12 11 6 2 2 4 7 8 1 12 7 9 12 4 3 3 1 3 7 10 6 6 9 6 9 5 3 5 3 2 7 9 7 27 24 21 22 27 31 29 29 23 21 25 23 22 20 17
21 20 16 14 31 21 14 9 5 3 2 4 7 6 10 3 2 4 6 9 6 3 4 3 8 6 3 1 7 8 6 3 4 3 5 11 4 7 13 17 24 24 17 23 25 42 38 25 31 28 28 27 24 20
12 15 19 21 30 19 9 7 7 4 2 3 3 4 4 2 2 4 6 2 2 2 2 2 3 3 8 2 5 9 9 6 6 8 14 5 6 16 16 19 27 27 26 20 20 24 33 39 31 32 34 32 27 23
8 16 18 35 28 15 8 9 9 6 3 2 2 1 5 1 3 2 2 2 1 6 7 4 5 9 5 5 2 3 2 5 3 5 5 2 5 11 15 17 16 6 3 15 16 12 25 32 37 37 39 38 35 31
15 22 39 38 22 14 10 16 11 11 7 7 4 3 2 2 2 6 4 5 7 0 7 3 3 3 1 1 4 1 3 4 5 3 0 2 1 10 12 13 9 7 11 14 18 17 21 25 33 32 32 34 36 34
37 32 31 20 9 3 4 6 15 12 7 3 3 4 2 6 2 7 3 5 3 6 7 4 1 3 3 5 7 5 5 0 3 2 3 7 12 13 14 11 10 14 18 17 17 19 24 27 29 31 31 29 31 34
20 15 11 9 7 8 14 15 10 5 4 4 7 2 7 7 7 0 7 7 5 1 1 5 4 5 8 7 4 5 4 4 4 4 6 8 14 18 19 18 19 20 23 25 23 23 26 31 35 38 32 45 44 42
8 4 2 5 7 7 8 4 6 8 3 5 6 5 10 6 2 2 3 4 3 4 2 3 6 9 5 4 4 2 6 6 3 5 10 19 16 14 18 21 23 24 26 27 25 24 23 27 30 31 34 44 47 45
6 10 12 13 12 7 3 11 12 6 4 5 9 9 9 7 5 4 7 7 7 4 2 2 2 4 4 4 6 5 4 4 5 9 19 16 10 14 17 19 19 19 16 16 19 22 28 29 25 29 32 36 45 48
1 2 7 7 5 7 12 8 4 5 6 7 9 13 13 11 11 6 4 6 10 7 5 1 3 3 1 6 4 4 5 9 16 16 12 5 10 14 16 18 18 20 17 16 20 22 26 28 22 23 20 15 24 36
4 5 9 6 9 17 10 4 4 5 9 13 11 5 12 11 8 8 9 13 12 9 4 3 0 7 4 6 6 6 10 10 5 7 5 4 6 8 12 14 12 10 12 16 21 21 20 14 9 14 15 11 17 22
6 5 6 8 12 10 4 5 6 7 11 9 13 14 14 13 14 13 11 15 16 9 5 6 6 6 5 7 14 12 8 8 8 3 1 5 5 6 7 7 9 12 14 17 20 17 15 13 5 5 7 10 17 31
9 9 11 12 12 5 5 6 7 8 8 3 10 12 11 10 8 11 17 19 17 10 12 8 11 12 10 6 5 6 4 5 7 8 8 1 3 5 7 7 10 12 14 17 15 15 14 15 12 3 10 14 11 33
8 6 5 2 7 13 7 6 9 10 11 9 10 10 8 10 14 16 18 19 20 13 18 20 17 5 9 8 9 8 7 5 5 5 2 8 4 6 5 6 10 13 15 18 17 22 22 14 14 15 21 31 19 13
8 7 6 9 6 7 9 11 9 7 8 12 13 11 13 13 12 11 10 20 14 29 23 15 11 16 17 14 11 10 11 9 11 11 9 14 11 9 5 5 7 9 9 10 13 14 17 22 21 23 23 17 13 14
12 10 7 7 6 7 8 7 9 9 8 6 6 7 7 7 4 8 10 14 12 10 9 9 15 21 21 19 16 15 14 13 11 10 13 13 13 10 5 6 7 10 10 8 10 14 15 15 14 15 13 11 9 5
12 5 6 7 11 7 6 9 10 8 8 9 6 5 6 4 8 9 7 7 6 9 11 17 24 24 21 21 17 15 15 14 12 12 14 13 12 11 8 9 14 14 13 12 13 10 13 12 9 9 8 5 5 4
6 8 8 9 9 7 9 7 8 9 8 7 5 6 7 10 6 6 7 7 9 12 17 24 23 21 18 18 17 17 17 13 11 12 14 12 12 12 11 13 16 13 11 15 15 12 9 6 5 5 5 6 5 3
5 11 13 9 8 9 5 5 4 5 5 5 7 4 8 6 6 7 6 8 9 16 23 27 25 21 19 20 23 21 19 16 14 12 13 14 11 11 12 16 16 13 13 12 10 9 8 8 8 7 7 6 5 3
7 9 12 12 9 9 10 10 12 10 7 5 4 5 5 6 6 3 6 7 8 15 21 23 19 18 20 23 24 24 22 18 14 10 14 15 12 11 11 14 16 16 15 11 10 9 7 5 7 8 6 4 5 6
11 8 13 10 12 16 16 11 6 5 3 4 5 3 4 4 4 3 3 10 13 19 23 22 20 18 21 25 27 29 25 21 17 16 15 13 10 10 13 16 17 24 16 13 10 7 6 2 4 7 7 4 3 5
11 11 10 15 16 12 11 10 10 8 8 8 5 6 9 8 8 6 6 15 21 23 26 26 24 24 24 26 26 26 25 24 23 22 19 14 15 15 17 17 16 16 14 10 10 12 9 6 3 4 4 4 4 6
17 20 13 11 12 11 17 18 19 12 14 16 17 20 23 22 17 16 17 21 29 30 27 26 29 30 29 29 27 27 26 26 24 20 18 16 15 18 21 21 19 19 19 15 12 12 10 6 3 4 5 4 6 7
6 13 14 20 21 22 26 26 27 28 29 29 27 28 28 20 14 16 18 19 25 26 29 31 32 32 31 29 26 26 25 27 30 28 21 13 18 22 23 22 20 20 18 17 14 10 6 2 4 5 5 6 8 8
15 21 14 9 16 11 11 13 14 17 14 15 16 12 12 10 12 3 10 20 27 27 27 22 20 20 20 17 16 20 20 17 21 26 34 29 21 24 27 25 24 22 19 16 13 10 7 5 5 6 7 8 8 8
18 18 18 18 11 9 10 10 8 7 9 5 3 6 8 9 6 8 11 8 12 13 16 23 25 23 17 14 19 26 30 23 21 18 18 31 36 28 27 26 25 24 21 17 14 12 12 12 11 9 9 9 8 7
Wind_Direction_500mb
315 315 320 327 329 331 216 299 319 328 346 352 357 338 293 311 334 356 332 8 53 338 147 188 167 125 160 236 210 123 180 173 178 147 192 125 188 142 268 342 192 192 184 208 222 227 233 155 149 222 90 121 123 118
318 316 320 328 325 47 302 321 319 323 345 360 10 0 339 330 336 348 343 336 341 291 71 207 201 200 181 131 134 157 43 113 61 118 127 142 150 188 204 209 199 226 260 253 237 59 112 171 95 131 148 160 186 201
318 313 317 320 278 287 280 311 325 321 336 0 11 360 3 7 4 8 5 351 3 252 201 208 212 222 226 220 203 260 173 135 160 111 142 147 152 172 183 216 237 219 221 248 281 172 177 173 165 171 177 183 175 166
309 309 305 288 245 256 252 298 323 320 308 315 337 346 352 357 3 6 28 351 28 305 281 113 146 137 224 237 218 216 143 146 143 169 217 203 177 214 210 262 228 221 166 229 245 247 213 218 220 193 178 171 179 191
298 293 299 280 248 241 227 280 314 318 312 282 294 315 325 330 344 359 32 80 57 42 346 92 221 251 261 201 196 190 174 155 170 202 226 219 107 184 216 259 238 202 213 201 237 265 216 161 201 192 190 190 196 199
292 287 292 271 226 218 214 239 298 315 316 284 292 319 320 322 327 47 189 1 14 30 234 185 103 84 331 185 188 189 193 206 198 229 279 238 104 242 212 232 280 238 244 235 275 283 219 203 165 177 187 188 187 200
273 269 271 243 211 224 243 254 278 317 332 305 338 328 319 318 102 140 32 269 14 67 241 185 150 136 115 152 184 196 209 241 238 206 270 198 108 107 1 242 249 314 282 254 233 215 216 202 199 187 189 194 200 206
261 255 236 233 187 198 219 250 250 322 344 358 355 344 62 126 92 17 334 195 192 80 104 273 123 168 168 177 150 170 176 173 88 141 99 133 117 201 229 248 274 284 266 267 244 232 251 235 218 197 192 193 207 223
251 240 210 203 184 195 208 229 239 268 325 346 14 117 119 77 11 314 61 106 102 99 348 313 342 33 182 153 136 142 142 144 130 188 194 184 144 227 243 291 298 298 247 259 252 229 220 224 201 195 196 204 216 229
246 205 197 190 185 175 203 233 249 266 322 346 88 108 172 245 314 139 3 111 194 227 246 284 358 344 311 231 168 161 172 172 188 189 159 198 231 256 308 312 305 290 278 230 211 201 202 214 213 212 216 221 227 234
226 196 203 160 149 143 198 264 273 266 241 141 151 172 256 159 113 228 188 254 267 209 193 213 285 326 7 301 360 244 227 177 175 161 259 155 263 15 332 325 319 282 320 172 183 183 203 214 217 225 230 231 232 231
180 159 143 127 131 179 250 277 252 214 178 174 190 250 139 177 240 232 170 186 226 60 170 231 26 297 293 286 272 167 297 262 62 103 228 262 252 336 326 335 327 215 192 201 211 222 217 211 214 221 229 230 229 227
116 114 111 120 122 43 2 118 144 153 166 207 124 161 225 175 233 229 196 162 216 168 186 202 38 141 160 218 261 209 227 50 248 171 230 241 16 332 313 304 293 225 227 246 233 219 216 224 228 236 237 239 229 227
117 127 135 131 120 115 112 109 98 53 155 195 196 267 233 186 234 11 18 10 58 15 332 311 89 191 208 214 268 259 98 161 235 223 234 355 19 326 330 316 297 279 254 250 255 249 251 251 256 249 242 234 234 228
115 120 180 203 192 174 175 221 310 325 198 233 224 229 212 249 278 241 285 332 182 135 107 119 155 233 157 233 232 348 214 241 244 260 331 23 347 331 334 329 315 299 284 268 272 267 263 272 270 265 260 249 236 229
105 93 79 103 126 139 254 291 292 257 237 229 236 250 211 236 212 197 229 196 154 162 93 225 163 232 218 282 226 239 280 256 320 336 347 330 340 335 334 331 327 328 318 298 292 299 297 290 289 278 271 262 236 217
193 172 161 115 74 349 317 290 241 228 237 230 232 232 257 276 290 261 199 168 178 219 359 309 269 39 14 241 253 212 257 319 343 329 353 359 338 332 335 334 332 328 324 324 319 314 305 284 276 279 270 254 232 203
267 249 212 244 322 334 318 226 227 236 244 237 245 198 220 254 267 239 213 193 190 228 239 5 172 224 267 267 263 260 273 295 319 344 339 3 5 1 350 347 355 4 342 336 325 320 323 332 287 262 299 283 253 213
270 269 252 266 297 308 267 256 213 265 244 253 251 251 253 255 239 231 203 196 205 224 238 230 239 240 268 270 281 294 289 264 305 352 293 107 75 47 36 34 26 10 0 352 350 353 3 357 336 241 209 237 192 181
279 278 278 265 253 253 260 233 227 263 262 248 248 246 242 242 207 212 210 201 198 214 222 230 245 257 278 324 251 239 263 263 249 265 149 96 56 62 78 60 29 21 12 3 4 20 360 13 24 53 34 176 179 140
286 266 240 227 230 227 258 241 240 252 283 257 265 261 252 219 236 233 223 200 201 227 240 249 268 223 167 163 168 183 202 200 277 293 181 161 144 131 114 57 38 27 28 52 67 48 41 71 94 102 132 130 120 119
254 260 243 248 238 250 253 233 251 274 258 271 274 257 262 255 249 218 197 204 242 246 250 276 247 185 168 169 169 156 168 145 140 141 132 136 138 141 121 44 32 44 70 66 50 79 96 94 90 91 102 112 102 98
248 254 240 235 228 240 258 221 239 223 239 222 225 229 216 217 186 177 235 229 250 238 216 193 173 158 157 157 153 148 147 148 156 157 147 142 136 128 104 46 71 97 92 82 97 91 89 95 80 91 89 94 90 94
211 226 236 231 212 259 232 229 221 241 236 232 234 235 207 204 177 227 253 246 201 186 174 170 156 148 147 150 151 158 158 159 161 161 161 157 149 138 113 91 112 108 90 99 118 105 86 88 84 90 85 54 36 47
231 222 212 236 223 238 241 211 215 224 253 221 246 225 172 187 231 236 238 172 185 187 179 168 169 176 175 165 162 163 159 160 166 170 173 174 164 153 135 126 135 127 110 114 112 105 92 77 89 53 24 40 46 59
243 210 203 220 203 228 248 261 230 253 264 253 232 195 196 224 234 237 190 172 189 186 182 179 179 178 177 174 165 169 170 164 159 169 183 181 183 182 168 160 154 145 137 130 123 111 93 73 53 41 57 81 78 63
253 229 223 231 258 266 267 262 272 276 268 260 233 191 221 234 240 164 157 184 176 176 172 174 182 186 185 174 164 163 165 157 153 165 179 176 184 177 175 174 164 161 152 143 131 127 118 75 41 29 31 37 34 18
245 254 230 208 228 241 266 279 262 249 234 288 274 255 265 263 343 93 179 180 166 171 167 169 168 173 176 177 173 163 164 164 152 144 153 170 178 177 171 164 169 154 152 150 148 134 131 87 19 8 5 359 338 356
231 224 232 249 241 242 232 234 245 241 220 225 261 281 267 274 265 232 228 206 190 176 173 172 168 164 165 169 173 174 179 181 181 180 186 186 187 191 183 179 174 166 162 159 149 149 161 144 92 36 30 32 32 5
239 215 234 245 234 235 235 232 265 273 264 264 276 287 284 281 263 245 253 221 195 190 185 182 177 177 181 180 183 188 194 197 200 204 204 210 205 194 182 180 177 171 169 161 152 141 128 135 29 22 22 10 355 350
225 205 236 248 259 258 259 262 264 268 271 272 274 271 278 284 269 270 252 216 201 193 191 186 185 183 186 185 192 200 208 212 213 211 209 207 197 189 181 177 175 174 173 172 173 175 189 211 285 308 299 316 325 342
214 222 231 243 257 270 272 262 256 252 256 259 275 267 277 271 271 252 261 237 205 205 199 192 209 204 211 211 225 231 223 222 220 208 207 202 198 198 192 188 186 184 184 185 193 203 225 245 292 305 295 300 304 298
218 225 236 263 259 236 219 235 245 261 239 261 304 325 334 309 358 32 12 354 186 179 202 207 207 222 235 223 241 243 251 232 222 219 218 209 202 198 195 198 200 201 205 207 220 235 253 260 264 272 283 290 287 272
Wind_Speed_850mb
38 35 32 32 25 6 3 7 10 10 13 12 11 8 9 11 11 12 9 9 6 4 6 10 4 4 5 5 1 12 10 7 8 4 4 3 2 3 5 4 7 13 12 10 11 12 16 19 14 13 15 19 15 9
37 32 28 20 5 3 3 9 9 9 11 11 10 9 7 9 10 10 5 11 5 1 1 11 10 7 3 3 4 8 6 3 6 5 3 5 5 7 9 6 7 9 6 4 9 4 10 24 5 14 9 7 6 4
33 30 20 16 10 4 6 9 10 10 9 9 8 8 9 9 10 10 8 10 5 3 5 7 11 12 11 5 6 5 4 5 6 2 9 5 4 7 8 7 7 10 10 9 4 16 14 19 13 12 9 7 10 9
29 27 19 14 14 12 7 7 9 9 8 6 5 7 9 10 11 11 6 8 5 3 7 9 4 3 13 16 13 8 7 9 12 8 5 5 3 8 4 2 11 2 15 14 16 16 8 24 23 20 15 14 13 10
25 23 20 13 15 16 10 5 8 9 8 10 7 7 9 11 12 11 8 7 12 5 8 5 3 3 4 10 15 13 14 10 9 7 8 3 6 8 5 6 12 19 16 13 9 6 21 3 30 27 25 22 16 11
23 20 15 10 15 17 11 4 8 8 8 9 7 8 10 10 9 6 3 6 9 10 2 4 2 4 5 16 17 17 16 9 6 3 5 4 2 7 6 6 7 10 20 25 14 11 14 9 20 30 25 19 15 12
22 18 14 11 19 15 11 5 5 5 5 5 4 8 8 7 4 3 2 5 3 10 1 6 10 3 8 14 13 13 12 7 7 2 5 9 5 5 1 6 10 16 19 22 16 10 14 19 16 22 20 18 17 12
23 20 14 13 24 21 12 11 6 2 2 4 7 8 1 12 7 9 12 4 3 3 1 3 7 10 6 6 9 6 9 5 3 5 3 2 7 9 7 27 24 21 22 27 31 29 29 23 21 25 23 22 20 17
21 20 16 14 31 21 14 9 5 3 2 4 7 6 10 3 2 4 6 9 6 3 4 3 8 6 3 1 7 8 6 3 4 3 5 11 4 7 13 17 24 24 17 23 25 42 38 25 31 28 28 27 24 20
12 15 19 21 30 19 9 7 7 4 2 3 3 4 4 2 2 4 6 2 2 2 2 2 3 3 8 2 5 9 9 6 6 8 14 5 6 16 16 19 27 27 26 20 20 24 33 39 31 32 34 32 27 23
8 16 18 35 28 15 8 9 9 6 3 2 2 1 5 1 3 2 2 2 1 6 7 4 5 9 5 5 2 3 2 5 3 5 5 2 5 11 15 17 16 6 3 15 16 12 25 32 37 37 39 38 35 31
15 22 39 38 22 14 10 16 11 11 7 7 4 3 2 2 2 6 4 5 7 0 7 3 3 3 1 1 4 1 3 4 5 3 0 2 1 10 12 13 9 7 11 14 18 17 21 25 33 32 32 34 36 34
37 32 31 20 9 3 4 6 15 12 7 3 3 4 2 6 2 7 3 5 3 6 7 4 1 3 3 5 7 5 5 0 3 2 3 7 12 13 14 11 10 14 18 17 17 19 24 27 29 31 31 29 31 34
20 15 11 9 7 8 14 15 10 5 4 4 7 2 7 7 7 0 7 7 5 1 1 5 4 5 8 7 4 5 4 4 4 4 6 8 14 18 19 18 19 20 23 25 23 23 26 31 35 38 32 45 44 42
8 4 2 5 7 7 8 4 6 8 3 5 6 5 10 6 2 2 3 4 3 4 2 3 6 9 5 4 4 2 6 6 3 5 10 19 16 14 18 21 23 24 26 27 25 24 23 27 30 31 34 44 47 45
6 10 12 13 12 7 3 11 12 6 4 5 9 9 9 7 5 4 7 7 7 4 2 2 2 4 4 4 6 5 4 4 5 9 19 16 10 14 17 19 19 19 16 16 19 22 28 29 25 29 32 36 45 48
1 2 7 7 5 7 12 8 4 5 6 7 9 13 13 11 11 6 4 6 10 7 5 1 3 3 1 6 4 4 5 9 16 16 12 5 10 14 16 18 18 20 17 16 20 22 26 28 22 23 20 15 24 36
4 5 9 6 9 17 10 4 4 5 9 13 11 5 12 11 8 8 9 13 12 9 4 3 0 7 4 6 6 6 10 10 5 7 5 4 6 8 12 14 12 10 12 16 21 21 20 14 9 14 15 11 17 22
6 5 6 8 12 10 4 5 6 7 11 9 13 14 14 13 14 13 11 15 16 9 5 6 6 6 5 7 14 12 8 8 8 3 1 5 5 6 7 7 9 12 14 17 20 17 15 13 5 5 7 10 17 31
9 9 11 12 12 5 5 6 7 8 8 3 10 12 11 10 8 11 17 19 17 10 12 8 11 12 10 6 5 6 4 5 7 8 8 1 3 5 7 7 10 12 14 17 15 15 14 15 12 3 10 14 11 33
8 6 5 2 7 13 7 6 9 10 11 9 10 10 8 10 14 16 18 19 20 13 18 20 17 5 9 8 9 8 7 5 5 5 2 8 4 6 5 6 10 13 15 18 17 22 22 14 14 15 21 31 19 13
8 7 6 9 6 7 9 11 9 7 8 12 13 11 13 13 12 11 10 20 14 29 23 15 11 16 17 14 11 10 11 9 11 11 9 14 11 9 5 5 7 9 9 10 13 14 17 22 21 23 23 17 13 14
12 10 7 7 6 7 8 7 9 9 8 6 6 7 7 7 4 8 10 14 12 10 9 9 15 21 21 19 16 15 14 13 11 10 13 13 13 10 5 6 7 10 10 8 10 14 15 15 14 15 13 11 9 5
12 5 6 7 11 7 6 9 10 8 8 9 6 5 6 4 8 9 7 7 6 9 11 17 24 24 21 21 17 15 15 14 12 12 14 13 12 11 8 9 14 14 13 12 13 10 13 12 9 9 8 5 5 4
6 8 8 9 9 7 9 7 8 9 8 7 5 6 7 10 6 6 7 7 9 12 17 24 23 21 18 18 17 17 17 13 11 12 14 12 12 12 11 13 16 13 11 15 15 12 9 6 5 5 5 6 5 3
5 11 13 9 8 9 5 5 4 5 5 5 7 4 8 6 6 7 6 8 9 16 23 27 25 21 19 20 23 21 19 16 14 12 13 14 11 11 12 16 16 13 13 12 10 9 8 8 8 7 7 6 5 3
7 9 12 12 9 9 10 10 12 10 7 5 4 5 5 6 6 3 6 7 8 15 21 23 19 18 20 23 24 24 22 18 14 10 14 15 12 11 11 14 16 16 15 11 10 9 7 5 7 8 6 4 5 6
11 8 13 10 12 16 16 11 6 5 3 4 5 3 4 4 4 3 3 10 13 19 23 22 20 18 21 25 27 29 25 21 17 16 15 13 10 10 13 16 17 24 16 13 10 7 6 2 4 7 7 4 3 5
11 11 10 15 16 12 11 10 10 8 8 8 5 6 9 8 8 6 6 15 21 23 26 26 24 24 24 26 26 26 25 24 23 22 19 14 15 15 17 17 16 16 14 10 10 12 9 6 3 4 4 4 4 6
17 20 13 11 12 11 17 18 19 12 14 16 17 20 23 22 17 16 17 21 29 30 27 26 29 30 29 29 27 27 26 26 24 20 18 16 15 18 21 21 19 19 19 15 12 12 10 6 3 4 5 4 6 7
6 13 14 20 21 22 26 26 27 28 29 29 27 28 28 20 14 16 18 19 25 26 29 31 32 32 31 29 26 26 25 27 30 28 21 13 18 22 23 22 20 20 18 17 14 10 6 2 4 5 5 6 8 8
15 21 14 9 16 11 11 13 14 17 14 15 16 12 12 10 12 3 10 20 27 27 27 22 20 20 20 17 16 20 20 17 21 26 34 29 21 24 27 25 24 22 19 16 13 10 7 5 5 6 7 8 8 8
18 18 18 18 11 9 10 10 8 7 9 5 3 6 8 9 6 8 11 8 12 13 16 23 25 23 17 14 19 26 30 23 21 18 18 31 36 28 27 26 25 24 21 17 14 12 12 12 11 9 9 9 8 7
Wind_Direction_850mb
315 315 320 327 329 331 216 299 319 328 346 352 357 338 293 311 334 356 332 8 53 338 147 188 167 125 160 236 210 123 180 173 178 147 192 125 188 142 268 342 192 192 184 208 222 227 233 155 149 222 90 121 123 118
318 316 320 328 325 47 302 321 319 323 345 360 10 0 339 330 336 348 343 336 341 291 71 207 201 200 181 131 134 157 43 113 61 118 127 142 150 188 204 209 199 226 260 253 237 59 112 171 95 131 148 160 186 201
318 313 317 320 278 287 280 311 325 321 336 0 11 360 3 7 4 8 5 351 3 252 201 208 212 222 226 220 203 260 173 135 160 111 142 147 152 172 183 216 237 219 221 248 281 172 177 173 165 171 177 183 175 166
309 309 305 288 245 256 252 298 323 320 308 315 337 346 352 357 3 6 28 351 28 305 281 113 146 137 224 237 218 216 143 146 143 169 217 203 177 214 210 262 228 221 166 229 245 247 213 218 220 193 178 171 179 191
298 293 299 280 248 241 227 280 314 318 312 282 294 315 325 330 344 359 32 80 57 42 346 92 221 251 261 201 196 190 174 155 170 202 226 219 107 184 216 259 238 202 213 201 237 265 216 161 201 192 190 190 196 199
292 287 292 271 226 218 214 239 298 315 316 284 292 319 320 322 327 47 189 1 14 30 234 185 103 84 331 185 188 189 193 206 198 229 279 238 104 242 212 232 280 238 244 235 275 283 219 203 165 177 187 188 187 200
273 269 271 243 211 224 243 254 278 317 332 305 338 328 319 318 102 140 32 269 14 67 241 185 150 136 115 152 184 196 209 241 238 206 270 198 108 107 1 242 249 314 282 254 233 215 216 202 199 187 189 194 200 206
261 255 236 233 187 198 219 250 250 322 344 358 355 344 62 126 92 17 334 195 192 80 104 273 123 168 168 177 150 170 176 173 88 141 99 133 117 201 229 248 274 284 266 267 244 232 251 235 218 197 192 193 207 223
251 240 210 203 184 195 208 229 239 268 325 346 14 117 119 77 11 314 61 106 102 99 348 313 342 33 182 153 136 142 142 144 130 188 194 184 144 227 243 291 298 298 247 259 252 229 220 224 201 195 196 204 216 229
246 205 197 190 185 175 203 233 249 266 322 346 88 108 172 245 314 139 3 111 194 227 246 284 358 344 311 231 168 161 172 172 188 189 159 198 231 256 308 312 305 290 278 230 211 201 202 214 213 212 216 221 227 234
226 196 203 160 149 143 198 264 273 266 241 141 151 172 256 159 113 228 188 254 267 209 193 213 285 326 7 301 360 244 227 177 175 161 259 155 263 15 332 325 319 282 320 172 183 183 203 214 217 225 230 231 232 231
180 159 143 127 131 179 250 277 252 214 178 174 190 250 139 177 240 232 170 186 226 60 170 231 26 297 293 286 272 167 297 262 62 103 228 262 252 336 326 335 327 215 192 201 211 222 217 211 214 221 229 230 229 227
116 114 111 120 122 43 2 118 144 153 166 207 124 161 225 175 233 229 196 162 216 168 186 202 38 141 160 218 261 209 227 50 248 171 230 241 16 332 313 304 293 225 227 246 233 219 216 224 228 236 237 239 229 227
117 127 135 131 120 115 112 109 98 53 155 195 196 267 233 186 234 11 18 10 58 15 332 311 89 191 208 214 268 259 98 161 235 223 234 355 19 326 330 316 297 279 254 250 255 249 251 251 256 249 242 234 234 228
115 120 180 203 192 174 175 221 310 325 198 233 224 229 212 249 278 241 285 332 182 135 107 119 155 233 157 233 232 348 214 241 244 260 331 23 347 331 334 329 315 299 284 268 272 267 263 272 270 265 260 249 236 229
105 93 79 103 126 139 254 291 292 257 237 229 236 250 211 236 212 197 229 196 154 162 93 225 163 232 218 282 226 239 280 256 320 336 347 330 340 335 334 331 327 328 318 298 292 299 297 290 289 278 271 262 236 217
193 172 161 115 74 349 317 290 241 228 237 230 232 232 257 276 290 261 199 168 178 219 359 309 269 39 14 241 253 212 257 319 343 329 353 359 338 332 335 334 332 328 324 324 319 314 305 284 276 279 270 254 232 203
267 249 212 244 322 334 318 226 227 236 244 237 245 198 220 254 267 239 213 193 190 228 239 5 172 224 267 267 263 260 273 295 319 344 339 3 5 1 350 347 355 4 342 336 325 320 323 332 287 262 299 283 253 213
270 269 252 266 297 308 267 256 213 265 244 253 251 251 253 255 239 231 203 196 205 224 238 230 239 240 268 270 281 294 289 264 305 352 293 107 75 47 36 34 26 10 0 352 350 353 3 357 336 241 209 237 192 181
279 278 278 265 253 253 260 233 227 263 262 248 248 246 242 242 207 212 210 201 198 214 222 230 245 257 278 324 251 239 263 263 249 265 149 96 56 62 78 60 29 21 12 3 4 20 360 13 24 53 34 176 179 140
286 266 240 227 230 227 258 241 240 252 283 257 265 261 252 219 236 233 223 200 201 227 240 249 268 223 167 163 168 183 202 200 277 293 181 161 144 131 114 57 38 27 28 52 67 48 41 71 94 102 132 130 120 119
254 260 243 248 238 250 253 233 251 274 258 271 274 257 262 255 249 218 197 204 242 246 250 276 247 185 168 169 169 156 168 145 140 141 132 136 138 141 121 44 32 44 70 66 50 79 96 94 90 91 102 112 102 98
248 254 240 235 228 240 258 221 239 223 239 222 225 229 216 217 186 177 235 229 250 238 216 193 173 158 157 157 153 148 147 148 156 157 147 142 136 128 104 46 71 97 92 82 97 91 89 95 80 91 89 94 90 94
211 226 236 231 212 259 232 229 221 241 236 232 234 235 207 204 177 227 253 246 201 186 174 170 156 148 147 150 151 158 158 159 161 161 161 157 149 138 113 91 112 108 90 99 118 105 86 88 84 90 85 54 36 47
231 222 212 236 223 238 241 211 215 224 253 221 246 225 172 187 231 236 238 172 185 187 179 168 169 176 175 165 162 163 159 160 166 170 173 174 164 153 135 126 135 127 110 114 112 105 92 77 89 53 24 40 46 59
243 210 203 220 203 228 248 261 230 253 264 253 232 195 196 224 234 237 190 172 189 186 182 179 179 178 177 174 165 169 170 164 159 169 183 181 183 182 168 160 154 145 137 130 123 111 93 73 53 41 57 81 78 63
253 229 223 231 258 266 267 262 272 276 268 260 233 191 221 234 240 164 157 184 176 176 172 174 182 186 185 174 164 163 165 157 153 165 179 176 184 177 175 174 164 161 152 143 131 127 118 75 41 29 31 37 34 18
245 254 230 208 228 241 266 279 262 249 234 288 274 255 265 263 343 93 179 180 166 171 167 169 168 173 176 177 173 163 164 164 152 144 153 170 178 177 171 164 169 154 152 150 148 134 131 87 19 8 5 359 338 356
231 224 232 249 241 242 232 234 245 241 220 225 261 281 267 274 265 232 228 206 190 176 173 172 168 164 165 169 173 174 179 181 181 180 186 186 187 191 183 179 174 166 162 159 149 149 161 144 92 36 30 32 32 5
239 215 234 245 234 235 235 232 265 273 264 264 276 287 284 281 263 245 253 221 195 190 185 182 177 177 181 180 183 188 194 197 200 204 204 210 205 194 182 180 177 171 169 161 152 141 128 135 29 22 22 10 355 350
225 205 236 248 259 258 259 262 264 268 271 272 274 271 278 284 269 270 252 216 201 193 191 186 185 183 186 185 192 200 208 212 213 211 209 207 197 189 181 177 175 174 173 172 173 175 189 211 285 308 299 316 325 342
214 222 231 243 257 270 272 262 256 252 256 259 275 267 277 271 271 252 261 237 205 205 199 192 209 204 211 211 225 231 223 222 220 208 207 202 198 198 192 188 186 184 184 185 193 203 225 245 292 305 295 300 304 298
218 225 236 263 259 236 219 235 245 261 239 261 304 325 334 309 358 32 12 354 186 179 202 207 207 222 235 223 241 243 251 232 222 219 218 209 202 198 195 198 200 201 205 207 220 235 253 260 264 272 283 290 287 272